This is the latest recevied weather packets stored in our database for station/object WB4ZUT. If no packets are shown the sender has not sent any weather packets the latest 10 day(s).
| Time | Temp. | Humidity | Pressure | Rain* | Wind** | Luminosity | Snow |
|---|---|---|---|---|---|---|---|
| 1778169687 | 17.22° C | 35% | 1017.2 hPa | 0 mm | - | 833 W/m² | - |
| 1778169382 | 16.67° C | 39% | 1017.4 hPa | 0 mm | - | 842 W/m² | - |
| 1778169079 | 16.67° C | 38% | 1017.5 hPa | 0 mm | - | 828 W/m² | - |
| 1778168776 | 16.67° C | 37% | 1017.5 hPa | 0 mm | - | 810 W/m² | - |
| 1778168473 | 16.11° C | 39% | 1017.4 hPa | 0 mm | - | 801 W/m² | - |
| 1778168169 | 16.67° C | 36% | 1017.5 hPa | 0 mm | - | 818 W/m² | - |
| 1778167866 | 16.67° C | 44% | 1017.4 hPa | 0 mm | - | 805 W/m² | - |
| 1778167562 | 16.11° C | 40% | 1017.4 hPa | 0 mm | - | 761 W/m² | - |
| 1778167258 | 16.11° C | 42% | 1017.6 hPa | 0 mm | - | 778 W/m² | - |
| 1778166954 | 16.11° C | 40% | 1017.4 hPa | 0 mm | - | 740 W/m² | - |
| 1778166651 | 15.56° C | 42% | 1017.4 hPa | 0 mm | - | 733 W/m² | - |
| 1778166349 | 15.56° C | 42% | 1017.6 hPa | 0 mm | - | 632 W/m² | - |
| 1778166045 | 15.56° C | 43% | 1017.5 hPa | 0 mm | - | 691 W/m² | - |
| 1778165740 | 15.56° C | 41% | 1017.6 hPa | 0 mm | - | 685 W/m² | - |
| 1778165439 | 15.56° C | 44% | 1017.6 hPa | 0 mm | - | 669 W/m² | - |
| 1778165134 | 15.56° C | 42% | 1017.6 hPa | 0 mm | - | 661 W/m² | - |
| 1778164832 | 16.11° C | 47% | 1017.5 hPa | 0 mm | - | 636 W/m² | - |
| 1778164529 | 15.56° C | 45% | 1017.4 hPa | 0 mm | - | 571 W/m² | - |
| 1778164227 | 15° C | 46% | 1017.5 hPa | 0 mm | - | 552 W/m² | - |
| 1778163921 | 15.56° C | 46% | 1017.6 hPa | 0 mm | - | 528 W/m² | - |
| 1778163619 | 15.56° C | 51% | 1017.6 hPa | 0 mm | - | 542 W/m² | - |
| 1778163315 | 15.56° C | 46% | 1017.7 hPa | 0 mm | - | 489 W/m² | - |
| 1778163012 | 15° C | 49% | 1017.3 hPa | 0 mm | - | 482 W/m² | - |
| 1778162708 | 14.44° C | 50% | 1017.4 hPa | 0 mm | - | 436 W/m² | - |
| 1778162401 | 14.44° C | 52% | 1017.5 hPa | 0 mm | - | 387 W/m² | - |
* Rain latest hour (hover to see other rain measurements)
** Current wind speed in m/s (hover to see current wind gust speed)